GW3939 Weather Reports


time (UTC)temp
F
wind
direction
speed
knots
gust
knots
rain 1hr
in
rain 24hr
in
rain mn
in
humidity
%
barometer
mb
20260505184531 56 21 1.7 9.6 0.00 0.00 0.00 32 1008.1
20260505184004 55 21 0.9 9.6 0.00 0.00 0.00 35 1008.3
20260505183520 55 11 2.6 9.6 0.00 0.00 0.00 34 1008.1
20260505183041 55 286 2.6 8.7 0.00 0.00 0.00 33 1007.9
20260505182519 55 284 1.7 9.6 0.00 0.00 0.00 34 1008.2
20260505182044 55 290 2.6 7.8 0.00 0.00 0.00 32 1008.0
20260505181520 55 267 0.9 8.7 0.00 0.00 0.00 36 1007.8
20260505181044 55 20 2.6 8.7 0.00 0.00 0.00 32 1007.9
20260505180518 55 253 2.6 8.7 0.00 0.00 0.00 34 1007.8
20260505180047 55 16 2.6 7.8 0.00 0.00 0.00 34 1007.8
20260505175559 55 160 0.9 12.2 0.00 0.00 0.00 36 1007.8
20260505175023 54 359 4.3 12.2 0.00 0.00 0.00 34 1007.9
20260505174558 54 168 2.6 9.6 0.00 0.00 0.00 34 1007.8
20260505174018 55 276 3.5 9.6 0.00 0.00 0.00 34 1007.9
20260505173538 56 293 0.9 7.0 0.00 0.00 0.00 35 1008.1
20260505173015 55 342 2.6 6.1 0.00 0.00 0.00 37 1008.1
20260505172538 54 286 0.9 5.2 0.00 0.00 0.00 37 1008.0
20260505172015 54 286 0.9 5.2 0.00 0.00 0.00 37 1007.9
20260505171610 53 274 0.9 10.4 0.00 0.00 0.00 36 1008.1
20260505171013 53 287 1.7 10.4 0.00 0.00 0.00 38 1008.2
20260505170543 53 340 2.6 9.6 0.00 0.00 0.00 35 1008.4
20260505170014 53 275 1.7 9.6 0.00 0.00 0.00 38 1008.0
20260505165543 53 318 2.6 9.6 0.00 0.00 0.00 35 1008.4
20260505165019 53 40 1.7 10.4 0.00 0.00 0.00 36 1008.3
20260505164549 53 306 0.9 10.4 0.00 0.00 0.00 39 1008.2
20260505164032 53 219 1.7 11.3 0.00 0.00 0.00 37 1007.8
20260505163510 52 254 1.7 11.3 0.00 0.00 0.00 37 1007.8
20260505163045 52 243 2.6 12.2 0.00 0.00 0.00 34 1007.7
20260505162505 53 252 4.3 12.2 0.00 0.00 0.00 35 1007.8
20260505162028 54 284 4.3 10.4 0.00 0.00 0.00 34 1007.6
20260505161505 53 65 2.6 11.3 0.00 0.00 0.00 38 1007.8
20260505161041 53 318 3.5 11.3 0.00 0.00 0.00 35 1008.0
20260505160519 52 276 1.7 7.8 0.00 0.00 0.00 35 1008.2
20260505153036 52 48 3.5 9.6 0.00 0.00 0.00 31 1007.9
20260505152519 52 295 3.5 9.6 0.00 0.00 0.00 31 1007.9
20260505152053 51 271 1.7 9.6 0.00 0.00 0.00 32 1007.7
20260505151534 51 255 2.6 9.6 0.00 0.00 0.00 31 1007.5
20260505151009 51 311 2.6 9.6 0.00 0.00 0.00 34 1007.7
20260505150529 51 283 0.9 9.6 0.00 0.00 0.00 36 1007.6
20260505140538 48 293 0.0 7.0 0.00 0.00 0.00 45 1008.1
20260505125015 45 293 0.9 5.2 0.00 0.00 0.00 55 1008.1
20260505124556 44 276 0.0 2.6 0.00 0.00 0.00 57 1008.1
20260505124010 44 284 0.0 2.6 0.00 0.00 0.00 56 1008.1
20260505123531 44 276 0.0 0.9 0.00 0.00 0.00 56 1008.1
20260505123009 44 277 0.0 0.9 0.00 0.00 0.00 56 1007.9
20260505122531 44 218 0.0 0.9 0.00 0.00 0.00 56 1007.9
20260505122049 44 218 0.0 1.7 0.00 0.00 0.00 55 1008.1
20260505121604 44 213 0.0 1.7 0.00 0.00 0.00 56 1008.0
20260505121049 43 221 0.0 0.9 0.00 0.00 0.00 56 1007.8
20260505120524 43 219 0.0 0.0 0.00 0.00 0.00 57 1007.8
20260505120047 43 219 0.0 1.7 0.00 0.00 0.00 58 1007.9
20260505115527 42 219 0.0 1.7 0.00 0.00 0.00 58 1007.7
20260505115049 42 280 0.0 0.0 0.00 0.00 0.00 58 1007.7
20260505114516 42 281 0.0 0.0 0.00 0.00 0.00 59 1007.4
20260505114050 42 281 0.0 0.0 0.00 0.00 0.00 61 1007.0
20260505113514 41 281 0.0 0.0 0.00 0.00 0.00 61 1006.7
20260505113056 41 280 0.0 0.0 0.00 0.00 0.00 61 1006.6
20260505112525 41 281 0.0 0.0 0.00 0.00 0.00 61 1006.2
20260505112045 41 281 0.0 0.0 0.00 0.00 0.00 61 1006.2
20260505111536 40 280 0.0 0.0 0.00 0.00 0.00 62 1006.0
20260505111009 40 281 0.0 0.0 0.00 0.00 0.00 62 1005.8
20260505110552 40 281 0.0 0.0 0.00 0.00 0.00 62 1005.9
20260505102045 43 280 0.0 0.9 0.00 0.00 0.00 55 1006.2
20260505101528 43 280 0.0 0.9 0.00 0.00 0.00 55 1006.1
20260505101005 43 246 0.0 1.7 0.00 0.00 0.00 55 1006.0
20260505100543 44 289 0.0 1.7 0.00 0.00 0.00 55 1005.9
20260505100032 44 285 0.0 1.7 0.00 0.00 0.00 54 1005.9
20260505095600 44 288 0.0 1.7 0.00 0.00 0.00 54 1005.7
20260505095044 44 288 0.0 0.9 0.00 0.00 0.00 53 1005.7
20260505094514 44 258 0.0 1.7 0.00 0.00 0.00 53 1005.7
20260505094034 45 284 0.0 1.7 0.00 0.00 0.00 53 1005.7
20260505093515 45 284 0.0 0.9 0.00 0.00 0.00 52 1005.6
20260505093043 45 291 0.0 0.9 0.00 0.00 0.00 51 1005.6
20260505092525 45 1 0.0 0.9 0.00 0.00 0.00 50 1005.6
20260505092004 45 235 0.0 3.5 0.00 0.00 0.00 50 1005.7
20260505091606 45 301 0.0 3.5 0.00 0.00 0.00 50 1005.8
20260505091022 46 1 0.0 3.5 0.00 0.00 0.00 49 1005.6
20260505090558 46 321 0.9 3.5 0.00 0.00 0.00 49 1005.8
20260505090500 46 349 0.0 3.5 0.00 0.00 0.00 49 1005.7
20260505090020 46 300 0.0 5.2 0.00 0.00 0.00 50 1005.7
20260505085555 46 293 0.9 6.1 0.00 0.00 0.00 49 1005.9
20260505085037 46 278 0.9 6.1 0.00 0.00 0.00 49 1005.9
20260505084555 46 269 0.0 1.7 0.00 0.00 0.00 50 1005.6
20260505084046 46 282 0.0 3.5 0.00 0.00 0.00 49 1005.5
20260505083521 46 294 0.9 3.5 0.00 0.00 0.00 48 1005.1
20260505083050 46 271 0.0 4.3 0.00 0.00 0.00 47 1004.9
20260505082532 47 287 0.0 5.2 0.00 0.00 0.00 47 1004.5
20260505082008 47 260 0.9 5.2 0.00 0.00 0.00 47 1004.4
20260505081549 47 297 0.9 7.0 0.00 0.00 0.00 46 1004.5
20260505081027 47 338 0.9 8.7 0.00 0.00 0.00 45 1004.4
20260505080502 47 269 1.7 9.6 0.00 0.00 0.00 46 1004.2
20260505080039 47 303 2.6 9.6 0.00 0.00 0.00 46 1004.2
20260505075502 47 237 0.9 9.6 0.00 0.00 0.00 47 1004.0
20260505075042 47 304 1.7 8.7 0.00 0.00 0.00 47 1004.0
20260505074520 47 314 0.9 9.6 0.00 0.00 0.00 48 1003.9
20260505074058 48 330 0.9 9.6 0.00 0.00 0.00 48 1003.8
20260505073538 48 288 0.9 4.3 0.00 0.00 0.00 48 1003.6
20260505073025 48 305 0.0 5.2 0.00 0.00 0.00 48 1003.5
20260505072558 48 266 1.7 5.2 0.00 0.00 0.00 48 1003.3
20260505072502 48 1 1.7 5.2 0.00 0.00 0.00 48 1003.2
20260505072036 48 30 0.9 4.3 0.00 0.00 0.00 48 1003.3
20260505071525 48 359 0.9 7.0 0.00 0.00 0.00 48 1003.3
20260505071054 49 288 0.9 7.0 0.00 0.00 0.00 47 1003.4
20260505070540 49 281 0.9 5.2 0.00 0.00 0.00 47 1003.4
20260505070015 49 354 0.0 8.7 0.00 0.00 0.00 47 1003.5
20260505065551 49 32 1.7 9.6 0.00 0.00 0.00 47 1003.4
20260505065032 49 316 3.5 9.6 0.00 0.00 0.00 47 1003.5
20260505064510 50 75 2.6 7.8 0.00 0.00 0.00 48 1003.3
20260505064048 50 262 0.9 7.8 0.00 0.00 0.00 49 1003.1
20260505063524 50 242 0.0 5.2 0.00 0.00 0.00 50 1002.8
20260505063004 50 321 0.0 2.6 0.00 0.00 0.00 49 1002.8
20260505062521 51 338 0.9 5.2 0.00 0.00 0.00 48 1003.0
20260505062056 51 293 0.9 7.8 0.00 0.00 0.00 49 1003.0
20260505061540 51 319 1.7 7.8 0.00 0.00 0.00 48 1002.8
20260505061024 51 41 2.6 18.2 0.00 0.00 0.00 48 1002.4
20260505060559 51 130 3.5 18.2 0.00 0.00 0.00 48 1002.4
20260505060038 52 328 1.7 7.8 0.00 0.00 0.00 49 1002.4
20260505055516 52 345 1.7 7.8 0.00 0.00 0.00 49 1002.4
20260505055053 52 1 0.0 5.2 0.00 0.00 0.00 49 1002.3
20260505054543 52 268 0.9 5.2 0.00 0.00 0.00 48 1002.1
20260505054017 52 284 1.7 5.2 0.00 0.00 0.00 47 1002.1
20260505053550 52 37 0.0 3.5 0.00 0.00 0.00 47 1002.0
20260505053031 53 13 0.9 3.5 0.00 0.00 0.00 47 1002.0
20260505052508 53 61 0.0 4.3 0.00 0.00 0.00 47 1001.9
20260505052042 53 286 1.7 4.3 0.00 0.00 0.00 46 1001.9
20260505051535 53 330 0.9 6.1 0.00 0.00 0.00 46 1002.0
20260505051053 54 311 1.7 6.1 0.00 0.00 0.00 46 1001.9
20260505050531 54 293 1.7 6.1 0.00 0.00 0.00 46 1001.8
20260505041506 55 325 0.9 4.3 0.00 0.00 0.00 43 1001.1
20260505041022 55 266 0.9 7.8 0.00 0.00 0.00 42 1001.1
20260505040542 55 321 1.7 7.8 0.00 0.00 0.00 42 1000.9
20260505040020 55 319 0.9 3.5 0.00 0.00 0.00 42 1000.9
20260505035544 55 292 0.0 2.6 0.00 0.00 0.00 42 1000.9
20260505035026 55 288 0.0 2.6 0.00 0.00 0.00 41 1001.2
20260505034504 55 282 0.0 1.7 0.00 0.00 0.00 41 1001.1
20260505034035 56 352 0.0 1.7 0.00 0.00 0.00 40 1000.9
20260505033550 56 288 0.0 1.7 0.00 0.00 0.00 39 1000.9
20260505033015 56 323 0.0 2.6 0.00 0.00 0.00 39 1000.9
20260505032551 57 46 0.0 3.5 0.00 0.00 0.00 38 1000.9
20260505032010 57 275 0.9 2.6 0.00 0.00 0.00 37 1001.0
20260505031538 57 284 0.0 3.5 0.00 0.00 0.00 37 1000.8
20260505031010 57 282 0.9 3.5 0.00 0.00 0.00 36 1000.7
20260505030534 58 265 0.9 3.5 0.00 0.00 0.00 36 1000.6
20260505030012 58 294 0.9 7.8 0.00 0.00 0.00 36 1000.5
20260505025547 58 273 1.7 7.8 0.00 0.00 0.00 35 1000.4
20260505025012 59 309 1.7 8.7 0.00 0.00 0.00 35 1000.4
20260505024548 59 327 2.6 8.7 0.00 0.00 0.00 34 1000.4
20260505024012 59 285 0.0 7.8 0.00 0.00 0.00 34 1000.1
20260505023548 59 217 0.9 7.0 0.00 0.00 0.00 34 1000.0
20260505023010 59 278 2.6 7.8 0.00 0.00 0.00 33 1000.0
20260505022550 60 326 2.6 12.2 0.00 0.00 0.00 33 999.8
20260505022029 60 314 3.5 12.2 0.00 0.00 0.00 33 999.6
20260505021553 60 283 2.6 7.0 0.00 0.00 0.00 33 999.4
20260505021024 60 283 1.7 7.0 0.00 0.00 0.00 33 999.0
20260505020546 60 273 1.7 7.0 0.00 0.00 0.00 32 998.8
20260505020012 61 290 1.7 7.0 0.00 0.00 0.00 32 998.6
20260505015548 61 290 2.6 13.9 0.00 0.00 0.00 32 998.7
20260505015008 61 321 4.3 13.9 0.00 0.00 0.00 32 998.6
20260505014531 61 169 3.5 13.9 0.00 0.00 0.00 32 998.6
20260505014010 62 263 4.3 14.8 0.00 0.00 0.00 32 998.3
20260505013545 62 308 5.2 14.8 0.00 0.00 0.00 32 998.2
20260505013100 62 131 3.5 11.3 0.00 0.00 0.00 34 998.2
20260505013002 62 347 3.5 11.3 0.00 0.00 0.00 34 998.1
20260505012526 63 323 2.6 8.7 0.00 0.00 0.00 34 998.1
20260505012056 63 346 3.5 8.7 0.00 0.00 0.00 35 998.1
20260505011538 63 214 1.7 12.2 0.00 0.00 0.00 35 998.1
20260505011056 64 312 3.5 16.5 0.00 0.00 0.00 34 998.0
20260505010520 64 290 3.5 8.7 0.00 0.00 0.00 34 998.0
20260505010111 65 283 2.6 7.8 0.00 0.00 0.00 34 997.9
20260505005520 65 311 2.6 7.0 0.00 0.00 0.00 34 997.6
20260505005056 66 340 0.9 8.7 0.00 0.00 0.00 34 997.4
20260505004517 66 168 2.6 12.2 0.00 0.00 0.00 33 997.2
20260505004038 67 359 4.3 13.0 0.00 0.00 0.00 32 997.1
20260505003515 67 294 3.5 13.0 0.00 0.00 0.00 32 996.9
20260505003053 68 291 2.6 17.4 0.00 0.00 0.00 32 996.7
20260505002512 69 350 3.5 11.3 0.00 0.00 0.00 32 996.5
20260505002034 70 331 4.3 12.2 0.00 0.00 0.00 32 996.4
20260505001517 70 25 4.3 12.2 0.00 0.00 0.00 31 996.3
20260505001045 71 331 3.5 10.4 0.00 0.00 0.00 31 996.2
20260505000510 71 245 2.6 10.4 0.00 0.00 0.00 31 996.2
20260505000051 72 329 3.5 11.3 0.00 0.00 0.00 31 996.2
20260504235601 72 71 4.3 11.3 0.00 0.00 0.00 31 996.1
20260504235502 72 315 3.5 10.4 0.00 0.00 0.00 32 996.1
20260504235042 73 293 1.7 10.4 0.00 0.00 0.00 33 996.0
20260504234600 73 37 2.6 10.4 0.00 0.00 0.00 34 996.0
20260504234501 73 297 2.6 12.2 0.00 0.00 0.00 34 995.9
20260504234041 74 269 3.5 12.2 0.00 0.00 0.00 34 995.9
20260504233600 74 264 3.5 8.7 0.00 0.00 0.00 33 995.8
20260504233502 74 266 2.6 8.7 0.00 0.00 0.00 34 995.8
20260504233025 75 313 0.9 9.6 0.00 0.00 0.00 34 995.7
20260504232504 76 297 4.3 11.3 0.00 0.00 0.00 33 995.5
20260504232027 76 293 5.2 11.3 0.00 0.00 0.00 33 995.4
20260504231507 76 296 3.5 12.2 0.00 0.00 0.00 33 995.4
20260504231030 77 263 2.6 12.2 0.00 0.00 0.00 33 995.3
20260504230548 77 316 4.3 8.7 0.00 0.00 0.00 33 995.2
20260504230024 77 86 2.6 16.5 0.00 0.00 0.00 33 995.2
20260504225550 78 274 6.1 16.5 0.00 0.00 0.00 33 995.2
20260504225012 78 271 4.3 10.4 0.00 0.00 0.00 33 995.0
20260504224606 78 295 2.6 10.4 0.00 0.00 0.00 33 995.1
20260504224010 79 285 3.5 13.9 0.00 0.00 0.00 31 995.0
20260504223532 79 300 4.3 13.9 0.00 0.00 0.00 31 995.0
20260504223008 79 288 1.7 12.2 0.00 0.00 0.00 32 995.0
20260504222531 79 279 2.6 12.2 0.00 0.00 0.00 31 995.1
20260504222009 79 200 1.7 7.8 0.00 0.00 0.00 33 994.9
20260504221550 78 245 4.3 7.8 0.00 0.00 0.00 32 995.0
20260504221030 78 287 2.6 7.0 0.00 0.00 0.00 32 994.9
20260504220503 78 300 2.6 7.0 0.00 0.00 0.00 31 994.9
20260504220026 77 290 1.7 7.0 0.00 0.00 0.00 31 995.0
20260504215507 77 285 2.6 8.7 0.00 0.00 0.00 32 995.0
20260504215043 77 281 1.7 12.2 0.00 0.00 0.00 32 995.0
20260504214538 77 291 2.6 12.2 0.00 0.00 0.00 31 995.0
20260504214100 77 284 1.7 12.2 0.00 0.00 0.00 32 995.1
20260504214009 77 278 1.7 12.2 0.00 0.00 0.00 31 995.1
20260504213539 77 259 2.6 10.4 0.00 0.00 0.00 32 995.1
20260504213018 77 261 1.7 10.4 0.00 0.00 0.00 32 995.2
20260504212557 77 234 1.7 9.6 0.00 0.00 0.00 30 995.1
20260504212014 78 295 1.7 13.0 0.00 0.00 0.00 30 995.1
20260504211557 79 260 2.6 13.0 0.00 0.00 0.00 30 995.1
20260504211032 79 48 1.7 13.0 0.00 0.00 0.00 31 995.2
20260504210554 79 247 4.3 13.0 0.00 0.00 0.00 31 995.2
20260504210030 79 143 2.6 7.8 0.00 0.00 0.00 31 995.3
20260504205508 78 203 2.6 10.4 0.00 0.00 0.00 31 995.5
20260504205031 79 271 1.7 10.4 0.00 0.00 0.00 30 995.5
20260504204557 79 240 1.7 9.6 0.00 0.00 0.00 31 995.5
20260504204038 78 264 2.6 9.6 0.00 0.00 0.00 32 995.5
20260504203555 78 237 2.6 11.3 0.00 0.00 0.00 32 995.6
20260504203019 78 219 4.3 13.0 0.00 0.00 0.00 32 995.7
20260504202556 78 299 2.6 7.8 0.00 0.00 0.00 33 995.7
20260504202019 77 108 1.7 7.0 0.00 0.00 0.00 34 995.7
20260504201610 78 207 0.9 10.4 0.00 0.00 0.00 34 995.9
20260504201024 78 262 0.9 10.4 0.00 0.00 0.00 32 995.9
20260504200503 79 170 2.6 7.8 0.00 0.00 0.00 32 995.9
20260504200038 79 276 1.7 7.8 0.00 0.00 0.00 33 996.0
20260504195548 79 228 1.7 11.3 0.00 0.00 0.00 31 996.1
20260504195032 79 242 2.6 11.3 0.00 0.00 0.00 31 996.1
20260504194548 79 284 3.5 10.4 0.00 0.00 0.00 31 996.1
20260504194025 79 232 1.7 8.7 0.00 0.00 0.00 32 996.1
20260504193538 78 286 2.6 12.2 0.00 0.00 0.00 31 996.1
20260504193015 78 220 1.7 12.2 0.00 0.00 0.00 31 996.1
20260504192552 78 270 4.3 13.9 0.00 0.00 0.00 32 996.1
20260504192011 78 243 4.3 13.9 0.00 0.00 0.00 31 996.4
20260504191535 78 217 3.5 13.9 0.00 0.00 0.00 33 996.5
20260504191016 78 291 3.5 12.2 0.00 0.00 0.00 32 996.4
20260504190534 78 255 2.6 11.3 0.00 0.00 0.00 32 996.5
20260504190051 77 288 2.6 11.3 0.00 0.00 0.00 34 996.6
20260504185533 77 246 2.6 9.6 0.00 0.00 0.00 31 996.7
20260504185051 77 270 2.6 8.7 0.00 0.00 0.00 33 996.6